SENTINEL-5P

Last updated on Mon Sep 21 2026 00:02:46 GMT+0000 (Coordinated Universal Time)

1 42969U 17064A 26263.42800237 .00000022 00000+0 31283-4 0 9997 2 42969 98.7989 204.9039 0001137 76.0920 284.0383 14.19532177463073
UTC large
Height (km)
Speed (km/s)
/
Latitude / Longitude
Inclination (degrees)
Orbital Period (minutes)
Azimuth
Elevation
Range (km)
Doppler Factor

Next 0 passes for location: London (51.5072 / 0.1276)

No passes found over London.
SENTINEL-5P